DECAYED

STARLINK-30185, 57459 (Decayed)

Orbit data source: Space-Track

STARLINK-30185, 57459 was a payload satellite owned by SpaceX/Seattle (US) in LEO that was launched on Fri, 28 Jul 2023 UTC via an FALCON 9 launch vehicle from the Air Force Eastern Test Range (AFETR). Payload-class satellites include a variety of spacecraft equipped with specific instruments for various scientific and technological missions. These include communications satellites like Starlink; space stations such as the ISS; scientific satellites like the Hubble; Earth observation satellites from companies like Planet Labs, Umbra, and HawkEye 360; GPS; miniature CubeSats for education and research; and military/defense satellites.

Not visible in the next 10 days
Identifier
57459, 2023-107C
Orbit
Decayed
Country
Flag of USUS
Related business
Manufacturer
SpaceX/Seattle
Mission
Decayed Commercial Communications
Bus & Motor
STARLINK V2M, Unknown motor
Mass
730 kg wet, ~700 kg dry
Launch date (UTC)
2023-07-28 (3 years ago)
Launch vehicle
FALCON 9
Launch site
Air Force Eastern Test Range (AFETR)
Object type
Payload
Rocket body
Debris
Shape & HBR
Box + 2 Pan, 17.7 m
Radar Cross Section
33.884 m², Large (>1 m²)

Expand to show TLE details & history
Last TLE update: 4 months ago

TLE from 4 months ago
0 STARLINK-30185
1 57459U 23107C   26043.33206427  .11417753  89151-5  41683-2 0  9997
2 57459  42.9902  70.4094 0004126 183.8013 176.2843 16.23719105141832
Epoch: 2026-02-12T07:58Z
TLE epoch observation values (Epoch: 2026-02-12T07:58:10.352Z)
Latitude
-0.00005°
Longitude
168.48087°
Altitude
211.95 km
Speed
7.78 km/s
True Right ascension
04h 41m 38s
True Declination
0° 00' 00"
Sunlit
Object was in daylight at epoch
Visualization orbit readout
Latitude
Unknown
Longitude
Unknown
Altitude
Unknown
Speed
Unknown
Apparent Right ascension
Unknown
Apparent Declination
Unknown
Sunlit
N/A
Visualization observer readout
Local Sidereal Time
21:32:23
Azimuth
Unknown
Elevation
Unknown
Doppler factor
Unknown
Orbital elements
Apogee altitude
214.22 km
Perigee altitude
208.782 km
Semi-major axis
6,589.638 km
Eccentricity
0.00041
Inclination
42.9902°
RAAN
70.4094°
Arg. of periapsis
183.8013°
True anomaly
176.28736°
Mean anomaly
176.2843°
Eccentric anomaly
176.28583°
Mean motion
4.05743 °/min
Orbital period
88.73 mins
BSTAR
0.0041683
Loading maneuver chart data...
Computing Atmospheric mass density...
Loading historical data...
Loading historical data...
Loading historical data...
Loading historical data...
Loading historical data...
Loading historical data...
Loading historical data...

Documentation

Showing up to 5 results
|